Regional Weather Roundup
Issued by NWS

Home | Current Version | Previous Version | Text Only | Print | Product List | Glossary Off
Versions: 1 2 3 4 5 6 7 8 9 10 11 12 13 14 15 16 17 18 19 20 21 22 23 24 25 26 27 28 29 30 31 32 33 34 35 36 37 38 39 40 41 42 43 44 45 46 47 48 49 50

000
ASUS43 KIND 181709
RWRIN

WEATHER ROUNDUP FOR INDIANA
NATIONAL WEATHER SERVICE INDIANAPOLIS IN
1200 PM EST THU JAN 18 2018

NOTE: "FAIR" INDICATES FEW OR NO CLOUDS BELOW 12,000 FEET WITH NO
SIGNIFICANT WEATHER AND/OR OBSTRUCTIONS TO VISIBILITY.

* - STATION DOES NOT REPORT WEATHER SUCH AS PRECIPITATION OR FOG.

+ - STATION NOT QUALITY CONTROLLED BY THE NATIONAL WEATHER SERVICE.
    USE DATA WITH CAUTION...ESPECIALLY DEWPOINT AND RELATIVE
    HUMIDITY OBSERVATIONS.

INZ001>003-010>013-019-020-181800-
NORTHWEST INDIANA

CITY           SKY/WX    TMP DP  RH WIND       PRES   REMARKS
GARY /AIRPORT/ MOSUNNY   25  12  58 SW14G29   30.12F WCI  13
KNOX *+        FAIR      21  12  68 SW15      30.16F WCI   8
LA PORTE +     FAIR      20  12  71 SW18G24   30.12F HAZE    WCI   5
MICHIGAN CITY+ FAIR      27  14  59 SW15      30.13S WCI  15
MONTICELLO +   FAIR      23  11  61 SW16G24   30.21F WCI   9
RENSSELAER +   FAIR      25  12  58 SW15      30.19F WCI  12
VALPARAISO     FAIR      23  13  65 SW18G25   30.12F WCI   9

$$

LMZ046-743>745-181800-
SOUTHERN LAKE MICHIGAN

STATION/POSITION TIME  TEMP    WIND        PRES    WAVE
                       AIR SEA DIR/SP/G            HT
                 (UTC) (F)     (DEG/KT/KT) (MB)    (FT)
BURNS HARBOR     1642   22     210/ 15     1020.0F
MICHIGAN CITY    1640   22     190/ 22/ 26   N/A

$$

INZ004-005-014>016-021>024-181800-
NORTH CENTRAL INDIANA

CITY           SKY/WX    TMP DP  RH WIND       PRES   REMARKS
ELKHART        FAIR      25  12  58 SW13G18   30.11F WCI  13
GOSHEN         FAIR      20  12  71 SW26G32   30.12F WCI   2
LOGANSPORT +   FAIR      21  14  73 SW16      30.23S WCI   7
PERU/GRISSOM   FAIR      22  14  72 SW16      30.20F WCI   8
ROCHESTER +    FAIR      25  14  63 SW18G25   30.19F WCI  11
SOUTH BEND     FAIR      20  12  71 SW23G30   30.11F WCI   3
WARSAW +       FAIR      23  12  63 SW16G23   30.15F WCI  10

$$

INZ006>009-017-018-025>027-181800-
NORTHEAST INDIANA

CITY           SKY/WX    TMP DP  RH WIND       PRES   REMARKS
AUBURN +       FAIR      25  -8  24 SW12G20   30.14F WCI  14
FORT WAYNE     FAIR      22  13  68 SW20      30.18F WCI   7
HUNTINGTON +   FAIR      22  10  60 W20G25    30.18F WCI   7
KENDALLVILLE + FAIR      23  13  68 W15G21    30.11F WCI  10

$$

INZ028-029-035-036-043>045-051>053-181800-
WEST CENTRAL INDIANA

CITY           SKY/WX    TMP DP  RH WIND       PRES   REMARKS
CRAWFORDSVL +  FAIR      19  11  71 MISG        N/A
GREENCASTLE +  FAIR      21  10  63 SW9       30.30F WCI  11
LAFAYETTE      FAIR      22  12  65 SW15G23   30.24F WCI   9
TERRE HAUTE    FAIR      22   9  57 SW12      30.34F WCI  10

$$

INZ030>032-037>040-046>048-054>057-064-065-181800-
CENTRAL INDIANA

CITY           SKY/WX    TMP DP  RH WIND       PRES   REMARKS
ANDERSON       SUNNY     21  10  63 SW12G17   30.24F WCI   9
COLUMBUS       SUNNY     23   9  54 SW15      30.36F WCI  10
FRANKFORT +    FAIR      24  15  67 SW15      30.24F WCI  11
INDIANAPOLIS   FAIR      22  11  62 SW20      30.28F WCI   7
-EAGLE CREEK   FAIR      22  10  60 SW13G21   30.27F WCI  10
MARION +       FAIR      20  13  74 SW17      30.22F WCI   5
MT COMFORT *+  FAIR      23  16  74 SW14      30.26F WCI  11
SHELBYVILLE    FAIR      23  11  60 SW17      30.29F WCI   9
ZIONSVILLE +   FAIR      20  11  66 SW18G24   30.25F WCI   5

$$

INZ033-034-041-042-049-050-058-059-181800-
EAST CENTRAL INDIANA

CITY           SKY/WX    TMP DP  RH WIND       PRES   REMARKS
MUNCIE         FAIR      22  10  60 SW15G23   30.22F WCI   9
RICHMOND +     FAIR      19  12  73 SW18      30.25F WCI   4

$$

INZ060-061-067>069-081>083-085>088-181800-
SOUTHWEST INDIANA

CITY           SKY/WX    TMP DP  RH WIND       PRES   REMARKS
EVANSVILLE     FAIR      21  13  71 SW12      30.46F WCI   9
HUNTINGBURG +  FAIR      23  13  65 SW12      30.44F WCI  12
WASHINGTON +   FAIR      23  10  56 SW13      30.40F WCI  11

$$

INZ062-063-066-070>080-084-089>092-181800-
SOUTH CENTRAL AND SOUTHEAST INDIANA

CITY           SKY/WX    TMP DP  RH WIND       PRES   REMARKS
BATESVILLE *+    N/A    N/A N/A N/A MISG        N/A
BEDFORD +      FAIR      25  10  54 SW9       30.38F WCI  15
BLOOMINGTON    FAIR      23  10  57 SW13      30.34F WCI  11
FRENCH LICK *+ FAIR      23   9  54 SW8       30.40F WCI  14
MADISON *+     FAIR      23  12  63 SW10      30.40F WCI  12
NORTH VERNON + FAIR      19  10  68 SW14      30.37F WCI   6
SEYMOUR +      FAIR      25  12  58 W14       30.39F WCI  13

$$





USA.gov is the U.S. government's official web portal to all federal, state and local government web resources and services.